Time,TemperatureF,DewpointF,PressureIn,WindDirection,WindDirectionDegrees,WindSpeedMPH,WindSpeedGustMPH,Humidity,HourlyPrecipIn,Conditions,Clouds,dailyrainin,SoftwareType,DateUTC
2013-01-22 00:02:00,-12.0,-16.0,30.24,West,269,0.0,1.0,80,0.00,,,0.00,,2013-01-22 06:02:00,
2013-01-22 00:12:00,-12.0,-16.0,30.24,West,269,0.0,1.0,80,0.00,,,0.00,,2013-01-22 06:12:00,
2013-01-22 00:22:00,-12.0,-16.0,30.24,WNW,295,0.0,1.0,80,0.00,,,0.00,,2013-01-22 06:22:00,
2013-01-22 00:32:00,-13.0,-17.0,30.24,East,96,0.0,0.0,81,0.00,,,0.00,,2013-01-22 06:32:00,
2013-01-22 00:42:00,-13.0,-17.0,30.24,East,96,0.0,0.0,81,0.00,,,0.00,,2013-01-22 06:42:00,
2013-01-22 00:53:00,-13.0,-17.0,30.23,East,96,0.0,0.0,81,0.00,,,0.00,,2013-01-22 06:53:00,
2013-01-22 01:02:00,-14.0,-18.0,30.24,East,96,0.0,0.0,81,0.00,,,0.00,,2013-01-22 07:02:00,
2013-01-22 01:12:00,-14.0,-18.0,30.24,East,96,0.0,0.0,81,0.00,,,0.00,,2013-01-22 07:12:00,
2013-01-22 01:22:00,-14.0,-18.0,30.24,East,96,0.0,0.0,83,0.00,,,0.00,,2013-01-22 07:22:00,
2013-01-22 01:32:00,-15.0,-19.0,30.24,East,96,0.0,0.0,82,0.00,,,0.00,,2013-01-22 07:32:00,
2013-01-22 01:42:00,-15.0,-19.0,30.24,East,96,0.0,0.0,82,0.00,,,0.00,,2013-01-22 07:42:00,
2013-01-22 01:53:00,-16.0,-20.0,30.26,East,96,0.0,0.0,81,0.00,,,0.00,,2013-01-22 07:53:00,
2013-01-22 02:02:00,-17.0,-21.0,30.26,East,96,0.0,0.0,82,0.00,,,0.00,,2013-01-22 08:02:00,
2013-01-22 02:12:00,-17.0,-21.0,30.26,East,96,0.0,0.0,82,0.00,,,0.00,,2013-01-22 08:12:00,
2013-01-22 02:22:00,-17.0,-21.0,30.27,East,96,0.0,0.0,82,0.00,,,0.00,,2013-01-22 08:22:00,
2013-01-22 02:32:00,-18.0,-22.0,30.27,East,96,0.0,0.0,81,0.00,,,0.00,,2013-01-22 08:32:00,
2013-01-22 02:42:00,-18.0,-22.0,30.27,East,96,0.0,0.0,81,0.00,,,0.00,,2013-01-22 08:42:00,
2013-01-22 02:52:00,-18.0,-22.0,30.27,East,96,0.0,0.0,82,0.00,,,0.00,,2013-01-22 08:52:00,
2013-01-22 03:02:00,-19.0,-23.0,30.27,East,96,0.0,0.0,80,0.00,,,0.00,,2013-01-22 09:02:00,
2013-01-22 03:12:00,-19.0,-23.0,30.27,East,96,0.0,0.0,80,0.00,,,0.00,,2013-01-22 09:12:00,
2013-01-22 03:22:00,-21.0,-25.0,30.27,East,96,0.0,0.0,81,0.00,,,0.00,,2013-01-22 09:22:00,
2013-01-22 03:32:00,-21.0,-25.0,30.28,East,96,0.0,0.0,81,0.00,,,0.00,,2013-01-22 09:32:00,
2013-01-22 03:42:00,-21.0,-25.0,30.28,East,96,0.0,0.0,81,0.00,,,0.00,,2013-01-22 09:42:00,
2013-01-22 03:52:00,-21.0,-25.0,30.28,ENE,60,0.0,0.0,81,0.00,,,0.00,,2013-01-22 09:52:00,
2013-01-22 04:02:00,-22.0,-26.0,30.29,ENE,59,0.0,0.0,81,0.00,,,0.00,,2013-01-22 10:02:00,
2013-01-22 04:12:00,-22.0,-26.0,30.29,ENE,59,0.0,0.0,81,0.00,,,0.00,,2013-01-22 10:12:00,
2013-01-22 04:22:00,-22.0,-26.0,30.29,ENE,59,0.0,0.0,81,0.00,,,0.00,,2013-01-22 10:22:00,
2013-01-22 04:32:00,-23.0,-27.0,30.29,ENE,60,0.0,0.0,80,0.00,,,0.00,,2013-01-22 10:32:00,
2013-01-22 04:42:00,-23.0,-27.0,30.29,ENE,60,0.0,0.0,80,0.00,,,0.00,,2013-01-22 10:42:00,
2013-01-22 04:52:00,-23.0,-27.0,30.29,ENE,59,0.0,0.0,80,0.00,,,0.00,,2013-01-22 10:52:00,
2013-01-22 05:02:00,-23.0,-27.0,30.29,ENE,58,0.0,0.0,80,0.00,,,0.00,,2013-01-22 11:02:00,
2013-01-22 05:12:00,-23.0,-27.0,30.29,ENE,58,0.0,0.0,80,0.00,,,0.00,,2013-01-22 11:12:00,
2013-01-22 05:22:00,-24.0,-28.0,30.29,ENE,60,0.0,0.0,80,0.00,,,0.00,,2013-01-22 11:22:00,
2013-01-22 05:33:00,-25.0,-29.0,30.30,ENE,59,0.0,0.0,80,0.00,,,0.00,,2013-01-22 11:33:00,
2013-01-22 05:43:00,-25.0,-29.0,30.30,ENE,59,0.0,0.0,80,0.00,,,0.00,,2013-01-22 11:43:00,
2013-01-22 05:53:00,-25.0,-29.0,30.30,ENE,60,0.0,0.0,79,0.00,,,0.00,,2013-01-22 11:53:00,
2013-01-22 06:03:00,-26.0,-30.0,30.30,ENE,59,0.0,0.0,79,0.00,,,0.00,,2013-01-22 12:03:00,
2013-01-22 06:12:00,-26.0,-30.0,30.30,ENE,59,0.0,0.0,79,0.00,,,0.00,,2013-01-22 12:12:00,
2013-01-22 06:23:00,-26.0,-30.0,30.30,ENE,60,0.0,0.0,80,0.00,,,0.00,,2013-01-22 12:23:00,
2013-01-22 06:33:00,-26.0,-30.0,30.30,ENE,60,0.0,0.0,80,0.00,,,0.00,,2013-01-22 12:33:00,
2013-01-22 06:43:00,-26.0,-30.0,30.30,ENE,60,0.0,0.0,80,0.00,,,0.00,,2013-01-22 12:43:00,
2013-01-22 06:52:00,-26.0,-30.0,30.30,ENE,59,0.0,0.0,80,0.00,,,0.00,,2013-01-22 12:52:00,
2013-01-22 07:03:00,-26.0,-30.0,30.31,ENE,58,0.0,0.0,80,0.00,,,0.00,,2013-01-22 13:03:00,
2013-01-22 07:13:00,-26.0,-30.0,30.31,ENE,58,0.0,0.0,80,0.00,,,0.00,,2013-01-22 13:13:00,
2013-01-22 07:23:00,-26.0,-30.0,30.31,ENE,60,0.0,0.0,79,0.00,,,0.00,,2013-01-22 13:23:00,
2013-01-22 07:33:00,-26.0,-30.0,30.32,ENE,60,0.0,0.0,79,0.00,,,0.00,,2013-01-22 13:33:00,
2013-01-22 07:43:00,-26.0,-30.0,30.32,ENE,60,0.0,0.0,79,0.00,,,0.00,,2013-01-22 13:43:00,
2013-01-22 07:53:00,-27.0,-31.0,30.32,ENE,59,0.0,0.0,79,0.00,,,0.00,,2013-01-22 13:53:00,
2013-01-22 08:03:00,-27.0,-31.0,30.32,ENE,60,0.0,0.0,79,0.00,,,0.00,,2013-01-22 14:03:00,
2013-01-22 08:13:00,-27.0,-31.0,30.32,ENE,60,0.0,0.0,79,0.00,,,0.00,,2013-01-22 14:13:00,
2013-01-22 08:23:00,-27.0,-32.0,30.33,ENE,60,0.0,0.0,78,0.00,,,0.00,,2013-01-22 14:23:00,
2013-01-22 08:34:00,-27.0,-31.0,30.34,ENE,60,0.0,0.0,80,0.00,,,0.00,,2013-01-22 14:34:00,
2013-01-22 08:44:00,-27.0,-31.0,30.34,ENE,60,0.0,0.0,80,0.00,,,0.00,,2013-01-22 14:44:00,
2013-01-22 08:53:00,-24.0,-28.0,30.34,ENE,60,0.0,0.0,82,0.00,,,0.00,,2013-01-22 14:53:00,
2013-01-22 09:03:00,-21.0,-25.0,30.34,ENE,58,0.0,0.0,82,0.00,,,0.00,,2013-01-22 15:03:00,
2013-01-22 09:13:00,-21.0,-25.0,30.34,ENE,58,0.0,0.0,82,0.00,,,0.00,,2013-01-22 15:13:00,
2013-01-22 09:23:00,-18.0,-21.0,30.34,ENE,60,0.0,0.0,84,0.00,,,0.00,,2013-01-22 15:23:00,
2013-01-22 09:34:00,-14.0,-17.0,30.34,SE,139,0.0,1.0,84,0.00,,,0.00,,2013-01-22 15:34:00,
2013-01-22 09:43:00,-14.0,-17.0,30.34,SE,139,0.0,1.0,84,0.00,,,0.00,,2013-01-22 15:43:00,
2013-01-22 09:52:00,-12.0,-16.0,30.34,SSW,195,0.0,1.0,82,0.00,,,0.00,,2013-01-22 15:52:00,
2013-01-22 10:03:00,-9.0,-13.0,30.35,SW,236,0.0,1.0,80,0.00,,,0.00,,2013-01-22 16:03:00,
2013-01-22 10:13:00,-9.0,-13.0,30.35,SW,236,0.0,1.0,80,0.00,,,0.00,,2013-01-22 16:13:00,
2013-01-22 10:23:00,-8.0,-13.0,30.35,ESE,120,0.0,1.0,78,0.00,,,0.00,,2013-01-22 16:23:00,
2013-01-22 10:33:00,-6.0,-13.0,30.34,NNW,332,0.0,5.0,71,0.00,,,0.00,,2013-01-22 16:33:00,
2013-01-22 10:43:00,-6.0,-13.0,30.34,NNW,332,0.0,5.0,71,0.00,,,0.00,,2013-01-22 16:43:00,
2013-01-22 10:53:00,-6.0,-13.0,30.34,NNW,332,0.0,5.0,71,0.00,,,0.00,,2013-01-22 16:53:00,
2013-01-22 11:03:00,-3.0,-12.0,30.35,NW,326,0.0,3.0,65,0.00,,,0.00,,2013-01-22 17:03:00,
2013-01-22 11:13:00,-3.0,-12.0,30.35,NW,326,0.0,3.0,65,0.00,,,0.00,,2013-01-22 17:13:00,
2013-01-22 11:23:00,-3.0,-12.0,30.35,SW,227,0.0,3.0,64,0.00,,,0.00,,2013-01-22 17:23:00,
2013-01-22 11:34:00,-3.0,-12.0,30.35,WSW,255,0.0,4.0,64,0.00,,,0.00,,2013-01-22 17:34:00,
2013-01-22 11:43:00,-3.0,-12.0,30.35,WSW,255,0.0,4.0,64,0.00,,,0.00,,2013-01-22 17:43:00,
2013-01-22 11:53:00,-2.0,-12.0,30.35,SSW,198,0.0,3.0,62,0.00,,,0.00,,2013-01-22 17:53:00,
2013-01-22 12:03:00,-1.0,-11.0,30.35,WSW,239,0.0,3.0,61,0.00,,,0.00,,2013-01-22 18:03:00,
2013-01-22 12:13:00,-1.0,-11.0,30.35,WSW,239,0.0,3.0,61,0.00,,,0.00,,2013-01-22 18:13:00,
2013-01-22 12:23:00,0.0,-11.0,30.35,West,259,1.0,4.0,59,0.00,,,0.00,,2013-01-22 18:23:00,
2013-01-22 12:33:00,0.0,-11.0,30.34,NW,308,0.0,7.0,58,0.00,,,0.00,,2013-01-22 18:33:00,
2013-01-22 12:43:00,0.0,-11.0,30.34,NW,308,0.0,7.0,58,0.00,,,0.00,,2013-01-22 18:43:00,
2013-01-22 12:53:00,0.0,-12.0,30.34,NNE,29,1.0,5.0,56,0.00,,,0.00,,2013-01-22 18:53:00,
2013-01-22 13:03:00,0.0,-11.0,30.33,NNE,33,0.0,4.0,58,0.00,,,0.00,,2013-01-22 19:03:00,
2013-01-22 13:13:00,0.0,-11.0,30.33,NNE,33,0.0,4.0,58,0.00,,,0.00,,2013-01-22 19:13:00,
2013-01-22 13:23:00,1.0,-11.0,30.32,West,276,0.0,5.0,56,0.00,,,0.00,,2013-01-22 19:23:00,
2013-01-22 13:33:00,2.0,-10.0,30.32,East,101,0.0,5.0,57,0.00,,,0.00,,2013-01-22 19:33:00,
2013-01-22 13:43:00,2.0,-10.0,30.32,East,101,0.0,5.0,57,0.00,,,0.00,,2013-01-22 19:43:00,
2013-01-22 13:53:00,1.0,-11.0,30.32,South,190,0.0,4.0,57,0.00,,,0.00,,2013-01-22 19:53:00,
2013-01-22 14:03:00,0.0,-11.0,30.33,NW,323,0.0,4.0,59,0.00,,,0.00,,2013-01-22 20:03:00,
2013-01-22 14:13:00,0.0,-11.0,30.33,NW,323,0.0,4.0,59,0.00,,,0.00,,2013-01-22 20:13:00,
2013-01-22 14:23:00,0.0,-11.0,30.32,NW,321,0.0,6.0,60,0.00,,,0.00,,2013-01-22 20:23:00,
2013-01-22 14:33:00,0.0,-10.0,30.33,NNW,335,0.0,4.0,62,0.00,,,0.00,,2013-01-22 20:33:00,
2013-01-22 14:43:00,0.0,-10.0,30.33,NNW,335,0.0,4.0,62,0.00,,,0.00,,2013-01-22 20:43:00,
2013-01-22 14:53:00,0.0,-10.0,30.33,West,272,0.0,5.0,61,0.00,,,0.00,,2013-01-22 20:53:00,
2013-01-22 15:03:00,0.0,-10.0,30.33,WNW,287,0.0,3.0,61,0.00,,,0.00,,2013-01-22 21:03:00,
2013-01-22 15:13:00,0.0,-10.0,30.33,WNW,287,0.0,3.0,61,0.00,,,0.00,,2013-01-22 21:13:00,
2013-01-22 15:23:00,0.0,-10.0,30.33,NW,326,0.0,4.0,62,0.00,,,0.00,,2013-01-22 21:23:00,
2013-01-22 15:33:00,0.0,-9.0,30.33,WSW,242,0.0,3.0,64,0.00,,,0.00,,2013-01-22 21:33:00,
2013-01-22 15:43:00,0.0,-9.0,30.33,WSW,242,0.0,3.0,64,0.00,,,0.00,,2013-01-22 21:43:00,
2013-01-22 15:53:00,0.0,-10.0,30.33,WNW,297,0.0,2.0,62,0.00,,,0.00,,2013-01-22 21:53:00,
2013-01-22 16:03:00,0.0,-10.0,30.33,WNW,297,0.0,2.0,62,0.00,,,0.00,,2013-01-22 22:03:00,
2013-01-22 16:13:00,0.0,-10.0,30.33,WNW,297,0.0,2.0,62,0.00,,,0.00,,2013-01-22 22:13:00,
2013-01-22 16:22:00,0.0,-10.0,30.33,WSW,248,0.0,4.0,63,0.00,,,0.00,,2013-01-22 22:22:00,
2013-01-22 16:32:00,0.0,-10.0,30.33,WSW,248,0.0,4.0,63,0.00,,,0.00,,2013-01-22 22:32:00,
2013-01-22 16:43:00,-1.0,-10.0,30.33,West,277,0.0,3.0,64,0.00,,,0.00,,2013-01-22 22:43:00,
2013-01-22 16:53:00,-1.0,-10.0,30.33,WNW,288,0.0,1.0,64,0.00,,,0.00,,2013-01-22 22:53:00,
2013-01-22 17:03:00,-1.0,-10.0,30.34,West,280,0.0,2.0,66,0.00,,,0.00,,2013-01-22 23:03:00,
2013-01-22 17:12:00,-1.0,-10.0,30.34,West,280,0.0,2.0,66,0.00,,,0.00,,2013-01-22 23:12:00,
2013-01-22 17:24:00,-1.0,-10.0,30.34,West,280,0.0,2.0,66,0.00,,,0.00,,2013-01-22 23:24:00,
2013-01-22 17:33:00,-3.0,-10.0,30.34,West,266,0.0,0.0,72,0.00,,,0.00,,2013-01-22 23:33:00,
2013-01-22 17:43:00,-3.0,-10.0,30.34,West,266,0.0,0.0,72,0.00,,,0.00,,2013-01-22 23:43:00,
2013-01-22 17:53:00,-3.0,-10.0,30.34,West,266,0.0,0.0,72,0.00,,,0.00,,2013-01-22 23:53:00,
2013-01-22 18:03:00,-5.0,-11.0,30.34,West,266,0.0,0.0,76,0.00,,,0.00,,2013-01-23 00:03:00,
2013-01-22 18:12:00,-5.0,-11.0,30.34,West,266,0.0,0.0,76,0.00,,,0.00,,2013-01-23 00:12:00,
2013-01-22 18:23:00,-7.0,-12.0,30.34,West,267,0.0,0.0,78,0.00,,,0.00,,2013-01-23 00:23:00,
2013-01-22 18:33:00,-7.0,-12.0,30.34,West,267,0.0,0.0,80,0.00,,,0.00,,2013-01-23 00:33:00,
2013-01-22 18:43:00,-7.0,-12.0,30.34,West,267,0.0,0.0,80,0.00,,,0.00,,2013-01-23 00:43:00,
2013-01-22 18:52:00,-8.0,-12.0,30.34,West,267,0.0,0.0,80,0.00,,,0.00,,2013-01-23 00:52:00,
2013-01-22 19:03:00,-9.0,-13.0,30.34,West,267,0.0,0.0,82,0.00,,,0.00,,2013-01-23 01:03:00,
2013-01-22 19:13:00,-9.0,-13.0,30.34,West,267,0.0,0.0,82,0.00,,,0.00,,2013-01-23 01:13:00,
2013-01-22 19:23:00,-10.0,-14.0,30.34,West,267,0.0,0.0,83,0.00,,,0.00,,2013-01-23 01:23:00,
2013-01-22 19:33:00,-11.0,-15.0,30.34,West,267,0.0,0.0,83,0.00,,,0.00,,2013-01-23 01:33:00,
2013-01-22 19:43:00,-11.0,-15.0,30.34,West,267,0.0,0.0,83,0.00,,,0.00,,2013-01-23 01:43:00,
2013-01-22 19:52:00,-12.0,-16.0,30.33,West,267,0.0,0.0,83,0.00,,,0.00,,2013-01-23 01:52:00,
2013-01-22 20:03:00,-13.0,-17.0,30.33,West,267,0.0,0.0,83,0.00,,,0.00,,2013-01-23 02:03:00,
2013-01-22 20:12:00,-13.0,-17.0,30.33,West,267,0.0,0.0,83,0.00,,,0.00,,2013-01-23 02:12:00,
2013-01-22 20:23:00,-15.0,-19.0,30.32,West,267,0.0,0.0,83,0.00,,,0.00,,2013-01-23 02:23:00,
2013-01-22 20:43:00,-15.0,-19.0,30.32,West,267,0.0,0.0,83,0.00,,,0.00,,2013-01-23 02:43:00,
2013-01-22 20:53:00,-17.0,-21.0,30.32,West,267,0.0,0.0,81,0.00,,,0.00,,2013-01-23 02:53:00,
2013-01-22 21:03:00,-18.0,-22.0,30.32,West,268,0.0,0.0,81,0.00,,,0.00,,2013-01-23 03:03:00,
2013-01-22 21:13:00,-18.0,-22.0,30.32,West,268,0.0,0.0,81,0.00,,,0.00,,2013-01-23 03:13:00,
2013-01-22 21:23:00,-19.0,-23.0,30.33,West,267,0.0,0.0,81,0.00,,,0.00,,2013-01-23 03:23:00,
2013-01-22 21:33:00,-18.0,-21.0,30.32,West,267,0.0,0.0,85,0.00,,,0.00,,2013-01-23 03:33:00,
2013-01-22 21:42:00,-18.0,-21.0,30.32,West,267,0.0,0.0,85,0.00,,,0.00,,2013-01-23 03:42:00,
2013-01-22 21:53:00,-17.0,-20.0,30.32,West,267,0.0,0.0,84,0.00,,,0.00,,2013-01-23 03:53:00,
2013-01-22 22:03:00,-17.0,-21.0,30.32,West,267,0.0,0.0,82,0.00,,,0.00,,2013-01-23 04:03:00,
2013-01-22 22:12:00,-17.0,-21.0,30.32,West,267,0.0,0.0,82,0.00,,,0.00,,2013-01-23 04:12:00,
2013-01-22 22:22:00,-17.0,-21.0,30.32,West,267,0.0,0.0,82,0.00,,,0.00,,2013-01-23 04:22:00,
2013-01-22 22:33:00,-18.0,-22.0,30.32,West,267,0.0,0.0,82,0.00,,,0.00,,2013-01-23 04:33:00,
2013-01-22 22:43:00,-18.0,-22.0,30.32,West,267,0.0,0.0,82,0.00,,,0.00,,2013-01-23 04:43:00,
2013-01-22 22:52:00,-18.0,-22.0,30.32,West,267,0.0,0.0,82,0.00,,,0.00,,2013-01-23 04:52:00,
2013-01-22 23:03:00,-18.0,-22.0,30.32,West,267,0.0,0.0,81,0.00,,,0.00,,2013-01-23 05:03:00,
2013-01-22 23:12:00,-18.0,-22.0,30.32,West,267,0.0,0.0,81,0.00,,,0.00,,2013-01-23 05:12:00,
2013-01-22 23:22:00,-19.0,-23.0,30.32,NNE,13,0.0,0.0,81,0.00,,,0.00,,2013-01-23 05:22:00,
2013-01-22 23:33:00,-19.0,-23.0,30.32,NNE,13,0.0,0.0,82,0.00,,,0.00,,2013-01-23 05:33:00,
2013-01-22 23:43:00,-19.0,-23.0,30.32,NNE,13,0.0,0.0,82,0.00,,,0.00,,2013-01-23 05:43:00,
2013-01-22 23:52:00,-18.0,-22.0,30.32,SSW,210,0.0,0.0,82,0.00,,,0.00,,2013-01-23 05:52:00,